owner,sensor,date,latitude,longitude,vertical_datum,mass_concentration_of_oxygen_in_sea_water,qcFlag 
SCCF RECON,ioos:station:SCCF:13:1,2010-11-01T00:00:00Z,26.5255,-82.0032,2.42,6.54,1111122 
SCCF RECON,ioos:station:SCCF:13:1,2010-11-01T01:00:00Z,26.5255,-82.0032,2.47,6.3,1111122 
SCCF RECON,ioos:station:SCCF:13:1,2010-11-01T02:00:00Z,26.5255,-82.0032,2.52,6.45,1111122 
SCCF RECON,ioos:station:SCCF:13:1,2010-11-01T03:00:00Z,26.5255,-82.0032,2.53,6.56,1111122 
SCCF RECON,ioos:station:SCCF:13:1,2010-11-01T04:00:00Z,26.5255,-82.0032,2.5,6.58,1111122 
SCCF RECON,ioos:station:SCCF:13:1,2010-11-01T05:00:00Z,26.5255,-82.0032,2.41,6.6,1111122 
SCCF RECON,ioos:station:SCCF:13:1,2010-11-01T06:00:00Z,26.5255,-82.0032,2.34,6.16,1111122 
SCCF RECON,ioos:station:SCCF:13:1,2010-11-01T07:00:00Z,26.5255,-82.0032,2.29,5.85,1111122 
SCCF RECON,ioos:station:SCCF:13:1,2010-11-01T08:00:00Z,26.5255,-82.0032,2.245,5.92,1111122 
SCCF RECON,ioos:station:SCCF:13:1,2010-11-01T09:00:00Z,26.5255,-82.0032,2.27,6.07,1111122 
SCCF RECON,ioos:station:SCCF:13:1,2010-11-01T10:00:00Z,26.5255,-82.0032,2.352,5.91,1111122 
SCCF RECON,ioos:station:SCCF:13:1,2010-11-01T11:00:00Z,26.5255,-82.0032,2.44,5.3,1111122 
SCCF RECON,ioos:station:SCCF:13:1,2010-11-01T12:00:00Z,26.5255,-82.0032,2.5,5.43,1111122 
SCCF RECON,ioos:station:SCCF:13:1,2010-11-01T13:00:00Z,26.5255,-82.0032,2.55,5.66,1111122 
SCCF RECON,ioos:station:SCCF:13:1,2010-11-01T14:00:00Z,26.5255,-82.0032,2.58,5.91,1111122 
SCCF RECON,ioos:station:SCCF:13:1,2010-11-01T15:00:00Z,26.5255,-82.0032,2.568,5.92,1111122 
SCCF RECON,ioos:station:SCCF:13:1,2010-11-01T16:00:00Z,26.5255,-82.0032,2.498,5.7,1111122 
SCCF RECON,ioos:station:SCCF:13:1,2010-11-01T17:00:00Z,26.5255,-82.0032,2.397,5.88,1111122 
SCCF RECON,ioos:station:SCCF:13:1,2010-11-01T18:00:00Z,26.5255,-82.0032,2.3,6.1,1111122 
SCCF RECON,ioos:station:SCCF:13:1,2010-11-01T19:00:00Z,26.5255,-82.0032,2.231,6.3,1111122 
SCCF RECON,ioos:station:SCCF:13:1,2010-11-01T20:00:00Z,26.5255,-82.0032,2.171,6.36,1111122 
SCCF RECON,ioos:station:SCCF:13:1,2010-11-01T21:00:00Z,26.5255,-82.0032,2.159,6.43,1111122 
SCCF RECON,ioos:station:SCCF:13:1,2010-11-01T22:00:00Z,26.5255,-82.0032,2.241,6.58,1111122 
SCCF RECON,ioos:station:SCCF:13:1,2010-11-01T23:00:00Z,26.5255,-82.0032,2.35,6.29,1111122 
SCCF RECON,ioos:station:SCCF:13:1,2010-11-02T00:00:00Z,26.5255,-82.0032,2.42,6.26,1111122 
SCCF RECON,ioos:station:SCCF:13:1,2010-11-02T01:00:00Z,26.5255,-82.0032,2.488,6.17,1111122 
SCCF RECON,ioos:station:SCCF:13:1,2010-11-02T02:00:00Z,26.5255,-82.0032,2.559,6.12,1111122 
SCCF RECON,ioos:station:SCCF:13:1,2010-11-02T03:00:00Z,26.5255,-82.0032,2.581,6.46,1111122 
SCCF RECON,ioos:station:SCCF:13:1,2010-11-02T04:00:00Z,26.5255,-82.0032,2.55,6.38,1111122 
SCCF RECON,ioos:station:SCCF:13:1,2010-11-02T05:00:00Z,26.5255,-82.0032,2.47,6.26,1111122 
SCCF RECON,ioos:station:SCCF:13:1,2010-11-02T06:00:00Z,26.5255,-82.0032,2.36,6.08,1111122 
SCCF RECON,ioos:station:SCCF:13:1,2010-11-02T07:00:00Z,26.5255,-82.0032,2.279,5.76,1111122 
SCCF RECON,ioos:station:SCCF:13:1,2010-11-02T08:00:00Z,26.5255,-82.0032,2.19,5.75,1111122 
SCCF RECON,ioos:station:SCCF:13:1,2010-11-02T09:00:00Z,26.5255,-82.0032,2.13,5.73,1111122 
SCCF RECON,ioos:station:SCCF:13:1,2010-11-02T10:00:00Z,26.5255,-82.0032,2.14,5.77,1111122 
SCCF RECON,ioos:station:SCCF:13:1,2010-11-02T11:00:00Z,26.5255,-82.0032,2.24,5.79,1111122 
SCCF RECON,ioos:station:SCCF:13:1,2010-11-02T12:00:00Z,26.5255,-82.0032,2.34,5.46,1111122 
SCCF RECON,ioos:station:SCCF:13:1,2010-11-02T13:00:00Z,26.5255,-82.0032,2.405,5.19,1111122 
SCCF RECON,ioos:station:SCCF:13:1,2010-11-02T14:00:00Z,26.5255,-82.0032,2.461,5.41,1111122 
SCCF RECON,ioos:station:SCCF:13:1,2010-11-02T15:00:00Z,26.5255,-82.0032,2.498,5.71,1111122 
SCCF RECON,ioos:station:SCCF:13:1,2010-11-02T16:00:00Z,26.5255,-82.0032,2.498,6.09,1111122 
SCCF RECON,ioos:station:SCCF:13:1,2010-11-02T17:00:00Z,26.5255,-82.0032,2.44,6.31,1111122 
SCCF RECON,ioos:station:SCCF:13:1,2010-11-02T18:00:00Z,26.5255,-82.0032,2.34,6.02,1111122 
SCCF RECON,ioos:station:SCCF:13:1,2010-11-02T19:00:00Z,26.5255,-82.0032,2.249,6.18,1111122 
SCCF RECON,ioos:station:SCCF:13:1,2010-11-02T20:00:00Z,26.5255,-82.0032,2.19,6.33,1111122 
SCCF RECON,ioos:station:SCCF:13:1,2010-11-02T21:00:00Z,26.5255,-82.0032,2.14,6.2,1111122 
SCCF RECON,ioos:station:SCCF:13:1,2010-11-02T22:00:00Z,26.5255,-82.0032,2.15,6.05,1111122 
SCCF RECON,ioos:station:SCCF:13:1,2010-11-02T23:00:00Z,26.5255,-82.0032,2.272,6.14,1111122 
SCCF RECON,ioos:station:SCCF:13:1,2010-11-03T00:00:00Z,26.5255,-82.0032,2.38,5.68,1111122 
SCCF RECON,ioos:station:SCCF:13:1,2010-11-03T01:00:00Z,26.5255,-82.0032,2.45,6.01,1111122 
SCCF RECON,ioos:station:SCCF:13:1,2010-11-03T02:00:00Z,26.5255,-82.0032,2.52,5.99,1111122 
SCCF RECON,ioos:station:SCCF:13:1,2010-11-03T03:00:00Z,26.5255,-82.0032,2.594,6.05,1111122 
SCCF RECON,ioos:station:SCCF:13:1,2010-11-03T04:00:00Z,26.5255,-82.0032,2.614,6.13,1111122 
SCCF RECON,ioos:station:SCCF:13:1,2010-11-03T05:00:00Z,26.5255,-82.0032,2.53,6.04,1111122 
SCCF RECON,ioos:station:SCCF:13:1,2010-11-03T06:00:00Z,26.5255,-82.0032,2.4,5.94,1111122 
SCCF RECON,ioos:station:SCCF:13:1,2010-11-03T07:00:00Z,26.5255,-82.0032,2.31,5.79,1111122 
SCCF RECON,ioos:station:SCCF:13:1,2010-11-03T08:00:00Z,26.5255,-82.0032,2.223,5.64,1111122 
SCCF RECON,ioos:station:SCCF:13:1,2010-11-03T09:00:00Z,26.5255,-82.0032,2.14,5.69,1111122 
SCCF RECON,ioos:station:SCCF:13:1,2010-11-03T10:00:00Z,26.5255,-82.0032,2.08,5.66,1111122 
SCCF RECON,ioos:station:SCCF:13:1,2010-11-03T11:00:00Z,26.5255,-82.0032,2.111,5.66,1111122 
SCCF RECON,ioos:station:SCCF:13:1,2010-11-03T12:00:00Z,26.5255,-82.0032,2.24,5.66,1111122 
SCCF RECON,ioos:station:SCCF:13:1,2010-11-03T13:00:00Z,26.5255,-82.0032,2.34,5.24,1111122 
SCCF RECON,ioos:station:SCCF:13:1,2010-11-03T14:00:00Z,26.5255,-82.0032,2.404,5.29,1111122 
SCCF RECON,ioos:station:SCCF:13:1,2010-11-03T15:00:00Z,26.5255,-82.0032,2.467,5.58,1111122 
SCCF RECON,ioos:station:SCCF:13:1,2010-11-03T16:00:00Z,26.5255,-82.0032,2.521,5.74,1111122 
SCCF RECON,ioos:station:SCCF:13:1,2010-11-03T17:00:00Z,26.5255,-82.0032,2.528,5.99,1111122 
SCCF RECON,ioos:station:SCCF:13:1,2010-11-03T18:00:00Z,26.5255,-82.0032,2.451,6.31,1111122 
SCCF RECON,ioos:station:SCCF:13:1,2010-11-03T19:00:00Z,26.5255,-82.0032,2.352,6.27,1111122 
SCCF RECON,ioos:station:SCCF:13:1,2010-11-03T20:00:00Z,26.5255,-82.0032,2.31,6.43,1111122 
SCCF RECON,ioos:station:SCCF:13:1,2010-11-03T21:00:00Z,26.5255,-82.0032,2.25,6.49,1111122 
SCCF RECON,ioos:station:SCCF:13:1,2010-11-03T22:00:00Z,26.5255,-82.0032,2.238,6.37,1111122 
SCCF RECON,ioos:station:SCCF:13:1,2010-11-03T23:00:00Z,26.5255,-82.0032,2.29,6.33,1111122 
SCCF RECON,ioos:station:SCCF:13:1,2010-11-04T00:00:00Z,26.5255,-82.0032,2.43,6.16,1111122 
SCCF RECON,ioos:station:SCCF:13:1,2010-11-04T01:00:00Z,26.5255,-82.0032,2.49,6.11,1111122 
SCCF RECON,ioos:station:SCCF:13:1,2010-11-04T02:00:00Z,26.5255,-82.0032,2.563,6.35,1111122 
SCCF RECON,ioos:station:SCCF:13:1,2010-11-04T03:00:00Z,26.5255,-82.0032,2.62,6.24,1111122 
SCCF RECON,ioos:station:SCCF:13:1,2010-11-04T04:00:00Z,26.5255,-82.0032,2.657,6.3,1111122 
SCCF RECON,ioos:station:SCCF:13:1,2010-11-04T05:00:00Z,26.5255,-82.0032,2.649,6.29,1111122 
SCCF RECON,ioos:station:SCCF:13:1,2010-11-04T06:00:00Z,26.5255,-82.0032,2.546,6.15,1111122 
SCCF RECON,ioos:station:SCCF:13:1,2010-11-04T07:00:00Z,26.5255,-82.0032,2.489,6.05,1111122 
SCCF RECON,ioos:station:SCCF:13:1,2010-11-04T08:00:00Z,26.5255,-82.0032,2.35,5.94,1111122 
SCCF RECON,ioos:station:SCCF:13:1,2010-11-04T09:00:00Z,26.5255,-82.0032,2.24,5.83,1111122 
SCCF RECON,ioos:station:SCCF:13:1,2010-11-04T10:00:00Z,26.5255,-82.0032,2.16,5.82,1111122 
SCCF RECON,ioos:station:SCCF:13:1,2010-11-04T11:00:00Z,26.5255,-82.0032,2.09,5.79,1111122 
SCCF RECON,ioos:station:SCCF:13:1,2010-11-04T12:00:00Z,26.5255,-82.0032,2.159,5.66,1111122 
SCCF RECON,ioos:station:SCCF:13:1,2010-11-04T13:00:00Z,26.5255,-82.0032,2.33,5.61,1111122 
SCCF RECON,ioos:station:SCCF:13:1,2010-11-04T14:00:00Z,26.5255,-82.0032,2.43,5.23,1111122 
SCCF RECON,ioos:station:SCCF:13:1,2010-11-04T15:00:00Z,26.5255,-82.0032,2.508,5.66,1111122 
SCCF RECON,ioos:station:SCCF:13:1,2010-11-04T16:00:00Z,26.5255,-82.0032,2.584,5.74,1111122 
SCCF RECON,ioos:station:SCCF:13:1,2010-11-04T17:00:00Z,26.5255,-82.0032,2.644,5.82,1111122 
SCCF RECON,ioos:station:SCCF:13:1,2010-11-04T18:00:00Z,26.5255,-82.0032,2.646,5.99,1111122 
SCCF RECON,ioos:station:SCCF:13:1,2010-11-04T19:00:00Z,26.5255,-82.0032,2.579,5.98,1111122 
SCCF RECON,ioos:station:SCCF:13:1,2010-11-04T20:00:00Z,26.5255,-82.0032,2.512,5.93,1111122 
SCCF RECON,ioos:station:SCCF:13:1,2010-11-04T21:00:00Z,26.5255,-82.0032,2.44,5.89,1111122 
SCCF RECON,ioos:station:SCCF:13:1,2010-11-04T22:00:00Z,26.5255,-82.0032,2.368,5.78,1111122 
SCCF RECON,ioos:station:SCCF:13:1,2010-11-04T23:00:00Z,26.5255,-82.0032,2.396,5.79,1111122 
SCCF RECON,ioos:station:SCCF:13:1,2010-11-05T00:00:00Z,26.5255,-82.0032,2.47,5.75,1111122 
SCCF RECON,ioos:station:SCCF:13:1,2010-11-05T01:00:00Z,26.5255,-82.0032,2.58,5.25,1111122 
SCCF RECON,ioos:station:SCCF:13:1,2010-11-05T02:00:00Z,26.5255,-82.0032,2.663,5.46,1111122 
SCCF RECON,ioos:station:SCCF:13:1,2010-11-05T03:00:00Z,26.5255,-82.0032,2.73,5.85,1111122 
SCCF RECON,ioos:station:SCCF:13:1,2010-11-05T04:00:00Z,26.5255,-82.0032,2.79,5.77,1111122 
SCCF RECON,ioos:station:SCCF:13:1,2010-11-05T05:00:00Z,26.5255,-82.0032,2.81,5.69,1111122 
SCCF RECON,ioos:station:SCCF:13:1,2010-11-05T06:00:00Z,26.5255,-82.0032,2.75,5.59,1111122 
SCCF RECON,ioos:station:SCCF:13:1,2010-11-05T07:00:00Z,26.5255,-82.0032,2.63,5.54,1111122 
SCCF RECON,ioos:station:SCCF:13:1,2010-11-05T08:00:00Z,26.5255,-82.0032,2.51,5.44,1111122 
SCCF RECON,ioos:station:SCCF:13:1,2010-11-05T09:00:00Z,26.5255,-82.0032,2.387,5.56,1111122 
SCCF RECON,ioos:station:SCCF:13:1,2010-11-05T10:00:00Z,26.5255,-82.0032,2.269,5.5,1111122 
SCCF RECON,ioos:station:SCCF:13:1,2010-11-05T11:00:00Z,26.5255,-82.0032,2.175,5.6,1111122 
SCCF RECON,ioos:station:SCCF:13:1,2010-11-05T12:00:00Z,26.5255,-82.0032,2.099,5.68,1111122 
SCCF RECON,ioos:station:SCCF:13:1,2010-11-05T13:00:00Z,26.5255,-82.0032,2.061,5.73,1111122 
SCCF RECON,ioos:station:SCCF:13:1,2010-11-05T14:00:00Z,26.5255,-82.0032,2.124,5.88,1111122 
SCCF RECON,ioos:station:SCCF:13:1,2010-11-05T15:00:00Z,26.5255,-82.0032,2.196,5.93,1111122 
SCCF RECON,ioos:station:SCCF:13:1,2010-11-05T16:00:00Z,26.5255,-82.0032,2.26,6.06,1111122 
SCCF RECON,ioos:station:SCCF:13:1,2010-11-05T17:00:00Z,26.5255,-82.0032,2.35,6.04,1111122 
SCCF RECON,ioos:station:SCCF:13:1,2010-11-05T18:00:00Z,26.5255,-82.0032,2.36,5.81,1111122 
SCCF RECON,ioos:station:SCCF:13:1,2010-11-05T19:00:00Z,26.5255,-82.0032,2.273,5.88,1111122 
SCCF RECON,ioos:station:SCCF:13:1,2010-11-05T20:00:00Z,26.5255,-82.0032,2.2,6.06,1111122 
SCCF RECON,ioos:station:SCCF:13:1,2010-11-05T21:00:00Z,26.5255,-82.0032,2.14,6.41,1111122 
SCCF RECON,ioos:station:SCCF:13:1,2010-11-05T22:00:00Z,26.5255,-82.0032,2.11,6.67,1111122 
SCCF RECON,ioos:station:SCCF:13:1,2010-11-05T23:00:00Z,26.5255,-82.0032,2.09,6.67,1111122 
SCCF RECON,ioos:station:SCCF:13:1,2010-11-06T00:00:00Z,26.5255,-82.0032,2.11,6.57,1111122 
SCCF RECON,ioos:station:SCCF:13:1,2010-11-06T01:00:00Z,26.5255,-82.0032,2.23,6.54,1111122 
SCCF RECON,ioos:station:SCCF:13:1,2010-11-06T02:00:00Z,26.5255,-82.0032,2.37,6.41,1111122 
SCCF RECON,ioos:station:SCCF:13:1,2010-11-06T03:00:00Z,26.5255,-82.0032,2.48,6.43,1111122 
SCCF RECON,ioos:station:SCCF:13:1,2010-11-06T04:00:00Z,26.5255,-82.0032,2.561,6.59,1111122 
SCCF RECON,ioos:station:SCCF:13:1,2010-11-06T05:00:00Z,26.5255,-82.0032,2.587,6.42,1111122 
SCCF RECON,ioos:station:SCCF:13:1,2010-11-06T06:00:00Z,26.5255,-82.0032,2.539,6.34,1111122 
SCCF RECON,ioos:station:SCCF:13:1,2010-11-06T07:00:00Z,26.5255,-82.0032,2.411,6.33,1111122 
SCCF RECON,ioos:station:SCCF:13:1,2010-11-06T08:00:00Z,26.5255,-82.0032,2.3,6.21,1111122 
SCCF RECON,ioos:station:SCCF:13:1,2010-11-06T09:00:00Z,26.5255,-82.0032,2.22,6.1,1111122 
SCCF RECON,ioos:station:SCCF:13:1,2010-11-06T10:00:00Z,26.5255,-82.0032,2.14,6.23,1111122 
SCCF RECON,ioos:station:SCCF:13:1,2010-11-06T11:00:00Z,26.5255,-82.0032,2.05,6.28,1111122 
SCCF RECON,ioos:station:SCCF:13:1,2010-11-06T12:00:00Z,26.5255,-82.0032,1.979,6.39,1111122 
SCCF RECON,ioos:station:SCCF:13:1,2010-11-06T13:00:00Z,26.5255,-82.0032,1.93,6.45,1111122 
SCCF RECON,ioos:station:SCCF:13:1,2010-11-06T14:00:00Z,26.5255,-82.0032,1.955,6.58,1111122 
SCCF RECON,ioos:station:SCCF:13:1,2010-11-06T15:00:00Z,26.5255,-82.0032,2.07,6.74,1111122 
SCCF RECON,ioos:station:SCCF:13:1,2010-11-06T16:00:00Z,26.5255,-82.0032,2.16,6.81,1111122 
SCCF RECON,ioos:station:SCCF:13:1,2010-11-06T17:00:00Z,26.5255,-82.0032,2.228,6.92,1111122 
SCCF RECON,ioos:station:SCCF:13:1,2010-11-06T18:00:00Z,26.5255,-82.0032,2.28,7.3,1111122 
SCCF RECON,ioos:station:SCCF:13:1,2010-11-06T19:00:00Z,26.5255,-82.0032,2.274,6.62,1111122 
SCCF RECON,ioos:station:SCCF:13:1,2010-11-06T20:00:00Z,26.5255,-82.0032,2.23,6.71,1111122 
SCCF RECON,ioos:station:SCCF:13:1,2010-11-06T21:00:00Z,26.5255,-82.0032,2.169,6.6,1111122 
SCCF RECON,ioos:station:SCCF:13:1,2010-11-06T22:00:00Z,26.5255,-82.0032,2.133,6.85,1111122 
SCCF RECON,ioos:station:SCCF:13:1,2010-11-06T23:00:00Z,26.5255,-82.0032,2.12,7.14,1111122 
SCCF RECON,ioos:station:SCCF:13:1,2010-11-07T00:00:00Z,26.5255,-82.0032,2.12,7.2,1111122 
SCCF RECON,ioos:station:SCCF:13:1,2010-11-07T01:00:00Z,26.5255,-82.0032,2.18,7.16,1111122 
SCCF RECON,ioos:station:SCCF:13:1,2010-11-07T02:00:00Z,26.5255,-82.0032,2.28,6.71,1111122 
SCCF RECON,ioos:station:SCCF:13:1,2010-11-07T03:00:00Z,26.5255,-82.0032,2.38,6.93,1111122 
SCCF RECON,ioos:station:SCCF:13:1,2010-11-07T04:00:00Z,26.5255,-82.0032,2.47,6.95,1111122 
SCCF RECON,ioos:station:SCCF:13:1,2010-11-07T05:00:00Z,26.5255,-82.0032,2.518,6.92,1111122 
SCCF RECON,ioos:station:SCCF:13:1,2010-11-07T06:00:00Z,26.5255,-82.0032,2.51,6.93,1111122 
SCCF RECON,ioos:station:SCCF:13:1,2010-11-07T07:00:00Z,26.5255,-82.0032,2.4,6.92,1111122 
SCCF RECON,ioos:station:SCCF:13:1,2010-11-07T08:00:00Z,26.5255,-82.0032,2.284,6.82,1111122 
SCCF RECON,ioos:station:SCCF:13:1,2010-11-07T09:00:00Z,26.5255,-82.0032,2.198,6.76,1111122 
SCCF RECON,ioos:station:SCCF:13:1,2010-11-07T10:00:00Z,26.5255,-82.0032,2.125,6.77,1111122 
SCCF RECON,ioos:station:SCCF:13:1,2010-11-07T11:00:00Z,26.5255,-82.0032,2.032,6.86,1111122 
SCCF RECON,ioos:station:SCCF:13:1,2010-11-07T12:00:00Z,26.5255,-82.0032,1.957,6.93,1111122 
SCCF RECON,ioos:station:SCCF:13:1,2010-11-07T13:00:00Z,26.5255,-82.0032,1.881,7.11,1111122 
SCCF RECON,ioos:station:SCCF:13:1,2010-11-07T14:00:00Z,26.5255,-82.0032,1.84,7.23,1111122 
SCCF RECON,ioos:station:SCCF:13:1,2010-11-07T15:00:00Z,26.5255,-82.0032,1.92,7.4,1111122 
SCCF RECON,ioos:station:SCCF:13:1,2010-11-07T16:00:00Z,26.5255,-82.0032,2.06,7.52,1111122 
SCCF RECON,ioos:station:SCCF:13:1,2010-11-07T17:00:00Z,26.5255,-82.0032,2.159,7.59,1111122 
SCCF RECON,ioos:station:SCCF:13:1,2010-11-07T18:00:00Z,26.5255,-82.0032,2.21,8.02,1111122 
SCCF RECON,ioos:station:SCCF:13:1,2010-11-07T19:00:00Z,26.5255,-82.0032,2.251,7.47,1111122 
SCCF RECON,ioos:station:SCCF:13:1,2010-11-07T20:00:00Z,26.5255,-82.0032,2.272,7.59,1111122 
SCCF RECON,ioos:station:SCCF:13:1,2010-11-07T21:00:00Z,26.5255,-82.0032,2.269,7.67,1111122 
SCCF RECON,ioos:station:SCCF:13:1,2010-11-07T22:00:00Z,26.5255,-82.0032,2.243,7.79,1111122 
SCCF RECON,ioos:station:SCCF:13:1,2010-11-07T23:00:00Z,26.5255,-82.0032,2.23,7.54,1111122 
SCCF RECON,ioos:station:SCCF:13:1,2010-11-08T00:00:00Z,26.5255,-82.0032,2.21,7.34,1111122 
SCCF RECON,ioos:station:SCCF:13:1,2010-11-08T01:00:00Z,26.5255,-82.0032,2.22,7.17,1111122 
SCCF RECON,ioos:station:SCCF:13:1,2010-11-08T02:00:00Z,26.5255,-82.0032,2.26,7.15,1111122 
SCCF RECON,ioos:station:SCCF:13:1,2010-11-08T03:00:00Z,26.5255,-82.0032,2.34,7.23,1111122 
SCCF RECON,ioos:station:SCCF:13:1,2010-11-08T04:00:00Z,26.5255,-82.0032,2.43,7.48,1111122 
SCCF RECON,ioos:station:SCCF:13:1,2010-11-08T05:00:00Z,26.5255,-82.0032,2.49,7.39,1111122 
SCCF RECON,ioos:station:SCCF:13:1,2010-11-08T06:00:00Z,26.5255,-82.0032,2.505,7.34,1111122 
SCCF RECON,ioos:station:SCCF:13:1,2010-11-08T07:00:00Z,26.5255,-82.0032,2.45,7.2,1111122 
SCCF RECON,ioos:station:SCCF:13:1,2010-11-08T08:00:00Z,26.5255,-82.0032,2.359,7.18,1111122 
SCCF RECON,ioos:station:SCCF:13:1,2010-11-08T09:00:00Z,26.5255,-82.0032,2.26,7.14,1111122 
SCCF RECON,ioos:station:SCCF:13:1,2010-11-08T10:00:00Z,26.5255,-82.0032,2.16,7.23,1111122 
SCCF RECON,ioos:station:SCCF:13:1,2010-11-08T11:00:00Z,26.5255,-82.0032,2.075,7.4,1111122 
SCCF RECON,ioos:station:SCCF:13:1,2010-11-08T12:00:00Z,26.5255,-82.0032,2.0,7.36,1111122 
SCCF RECON,ioos:station:SCCF:13:1,2010-11-08T13:00:00Z,26.5255,-82.0032,1.92,7.52,1111122 
SCCF RECON,ioos:station:SCCF:13:1,2010-11-08T14:00:00Z,26.5255,-82.0032,1.868,7.66,1111122 
SCCF RECON,ioos:station:SCCF:13:1,2010-11-08T15:00:00Z,26.5255,-82.0032,1.862,7.8,1111122 
SCCF RECON,ioos:station:SCCF:13:1,2010-11-08T16:00:00Z,26.5255,-82.0032,1.985,7.97,1111122 
SCCF RECON,ioos:station:SCCF:13:1,2010-11-08T17:00:00Z,26.5255,-82.0032,2.11,7.99,1111122 
SCCF RECON,ioos:station:SCCF:13:1,2010-11-08T18:00:00Z,26.5255,-82.0032,2.19,8.0,1111122 
SCCF RECON,ioos:station:SCCF:13:1,2010-11-08T19:00:00Z,26.5255,-82.0032,2.25,7.84,1111122 
SCCF RECON,ioos:station:SCCF:13:1,2010-11-08T20:00:00Z,26.5255,-82.0032,2.3,8.13,1111122 
SCCF RECON,ioos:station:SCCF:13:1,2010-11-08T21:00:00Z,26.5255,-82.0032,2.32,8.19,1111122 
SCCF RECON,ioos:station:SCCF:13:1,2010-11-08T22:00:00Z,26.5255,-82.0032,2.3,8.03,1111122 
SCCF RECON,ioos:station:SCCF:13:1,2010-11-08T23:00:00Z,26.5255,-82.0032,2.288,7.96,1111122 
SCCF RECON,ioos:station:SCCF:13:1,2010-11-09T00:00:00Z,26.5255,-82.0032,2.28,8.05,1111122 
SCCF RECON,ioos:station:SCCF:13:1,2010-11-09T01:00:00Z,26.5255,-82.0032,2.29,8.02,1111122 
SCCF RECON,ioos:station:SCCF:13:1,2010-11-09T02:00:00Z,26.5255,-82.0032,2.33,8.02,1111122 
SCCF RECON,ioos:station:SCCF:13:1,2010-11-09T03:00:00Z,26.5255,-82.0032,2.41,7.97,1111122 
SCCF RECON,ioos:station:SCCF:13:1,2010-11-09T04:00:00Z,26.5255,-82.0032,2.5,7.89,1111122 
SCCF RECON,ioos:station:SCCF:13:1,2010-11-09T05:00:00Z,26.5255,-82.0032,2.589,7.86,1111122 
SCCF RECON,ioos:station:SCCF:13:1,2010-11-09T06:00:00Z,26.5255,-82.0032,2.647,7.65,1111122 
SCCF RECON,ioos:station:SCCF:13:1,2010-11-09T07:00:00Z,26.5255,-82.0032,2.67,7.54,1111122 
SCCF RECON,ioos:station:SCCF:13:1,2010-11-09T08:00:00Z,26.5255,-82.0032,2.65,7.47,1111122 
SCCF RECON,ioos:station:SCCF:13:1,2010-11-09T09:00:00Z,26.5255,-82.0032,2.55,7.42,1111122 
SCCF RECON,ioos:station:SCCF:13:1,2010-11-09T10:00:00Z,26.5255,-82.0032,2.44,7.31,1111122 
SCCF RECON,ioos:station:SCCF:13:1,2010-11-09T11:00:00Z,26.5255,-82.0032,2.358,7.31,1111122 
SCCF RECON,ioos:station:SCCF:13:1,2010-11-09T12:00:00Z,26.5255,-82.0032,2.272,7.36,1111122 
SCCF RECON,ioos:station:SCCF:13:1,2010-11-09T13:00:00Z,26.5255,-82.0032,2.181,7.49,1111122 
SCCF RECON,ioos:station:SCCF:13:1,2010-11-09T14:00:00Z,26.5255,-82.0032,2.101,7.75,1111122 
SCCF RECON,ioos:station:SCCF:13:1,2010-11-09T15:00:00Z,26.5255,-82.0032,2.05,7.89,1111122 
SCCF RECON,ioos:station:SCCF:13:1,2010-11-09T16:00:00Z,26.5255,-82.0032,2.061,8.06,1111122 
SCCF RECON,ioos:station:SCCF:13:1,2010-11-09T17:00:00Z,26.5255,-82.0032,2.17,8.17,1111122 
SCCF RECON,ioos:station:SCCF:13:1,2010-11-09T18:00:00Z,26.5255,-82.0032,2.25,8.23,1111122 
SCCF RECON,ioos:station:SCCF:13:1,2010-11-09T19:00:00Z,26.5255,-82.0032,2.295,8.63,1111122 
SCCF RECON,ioos:station:SCCF:13:1,2010-11-09T20:00:00Z,26.5255,-82.0032,2.33,8.37,1111122 
SCCF RECON,ioos:station:SCCF:13:1,2010-11-09T21:00:00Z,26.5255,-82.0032,2.363,8.24,1111122 
SCCF RECON,ioos:station:SCCF:13:1,2010-11-09T22:00:00Z,26.5255,-82.0032,2.363,8.27,1111122 
SCCF RECON,ioos:station:SCCF:13:1,2010-11-09T23:00:00Z,26.5255,-82.0032,2.34,8.23,1111122 
SCCF RECON,ioos:station:SCCF:13:1,2010-11-10T00:00:00Z,26.5255,-82.0032,2.33,8.2,1111122 
SCCF RECON,ioos:station:SCCF:13:1,2010-11-10T01:00:00Z,26.5255,-82.0032,2.33,8.02,1111122 
SCCF RECON,ioos:station:SCCF:13:1,2010-11-10T02:00:00Z,26.5255,-82.0032,2.33,7.95,1111122 
SCCF RECON,ioos:station:SCCF:13:1,2010-11-10T03:00:00Z,26.5255,-82.0032,2.36,8.26,1111122 
SCCF RECON,ioos:station:SCCF:13:1,2010-11-10T04:00:00Z,26.5255,-82.0032,2.43,7.7,1111122 
SCCF RECON,ioos:station:SCCF:13:1,2010-11-10T05:00:00Z,26.5255,-82.0032,2.51,7.81,1111122 
SCCF RECON,ioos:station:SCCF:13:1,2010-11-10T06:00:00Z,26.5255,-82.0032,2.578,8.15,1111122 
SCCF RECON,ioos:station:SCCF:13:1,2010-11-10T07:00:00Z,26.5255,-82.0032,2.62,7.95,1111122 
SCCF RECON,ioos:station:SCCF:13:1,2010-11-10T08:00:00Z,26.5255,-82.0032,2.65,7.61,1111122 
SCCF RECON,ioos:station:SCCF:13:1,2010-11-10T09:00:00Z,26.5255,-82.0032,2.639,7.44,1111122 
SCCF RECON,ioos:station:SCCF:13:1,2010-11-10T10:00:00Z,26.5255,-82.0032,2.55,7.45,1111122 
SCCF RECON,ioos:station:SCCF:13:1,2010-11-10T11:00:00Z,26.5255,-82.0032,2.45,7.29,1111122 
SCCF RECON,ioos:station:SCCF:13:1,2010-11-10T12:00:00Z,26.5255,-82.0032,2.37,7.51,1111122 
SCCF RECON,ioos:station:SCCF:13:1,2010-11-10T13:00:00Z,26.5255,-82.0032,2.3,7.66,1111122 
SCCF RECON,ioos:station:SCCF:13:1,2010-11-10T14:00:00Z,26.5255,-82.0032,2.22,7.92,1111122 
SCCF RECON,ioos:station:SCCF:13:1,2010-11-10T15:00:00Z,26.5255,-82.0032,2.149,8.02,1111122 
SCCF RECON,ioos:station:SCCF:13:1,2010-11-10T16:00:00Z,26.5255,-82.0032,2.115,8.16,1111122 
SCCF RECON,ioos:station:SCCF:13:1,2010-11-10T17:00:00Z,26.5255,-82.0032,2.179,8.3,1111122 
SCCF RECON,ioos:station:SCCF:13:1,2010-11-10T18:00:00Z,26.5255,-82.0032,2.29,8.39,1111122 
SCCF RECON,ioos:station:SCCF:13:1,2010-11-10T19:00:00Z,26.5255,-82.0032,2.351,8.37,1111122 
SCCF RECON,ioos:station:SCCF:13:1,2010-11-10T20:00:00Z,26.5255,-82.0032,2.39,8.58,1111122 
SCCF RECON,ioos:station:SCCF:13:1,2010-11-10T21:00:00Z,26.5255,-82.0032,2.429,8.29,1111122 
SCCF RECON,ioos:station:SCCF:13:1,2010-11-10T22:00:00Z,26.5255,-82.0032,2.46,8.13,1111122 
SCCF RECON,ioos:station:SCCF:13:1,2010-11-10T23:00:00Z,26.5255,-82.0032,2.46,8.31,1111122 
SCCF RECON,ioos:station:SCCF:13:1,2010-11-11T00:00:00Z,26.5255,-82.0032,2.44,8.16,1111122 
SCCF RECON,ioos:station:SCCF:13:1,2010-11-11T01:00:00Z,26.5255,-82.0032,2.431,7.86,1111122 
SCCF RECON,ioos:station:SCCF:13:1,2010-11-11T02:00:00Z,26.5255,-82.0032,2.43,7.91,1111122 
SCCF RECON,ioos:station:SCCF:13:1,2010-11-11T03:00:00Z,26.5255,-82.0032,2.41,8.06,1111122 
SCCF RECON,ioos:station:SCCF:13:1,2010-11-11T04:00:00Z,26.5255,-82.0032,2.44,7.77,1111122 
SCCF RECON,ioos:station:SCCF:13:1,2010-11-11T05:00:00Z,26.5255,-82.0032,2.5,7.66,1111122 
SCCF RECON,ioos:station:SCCF:13:1,2010-11-11T06:00:00Z,26.5255,-82.0032,2.563,7.73,1111122 
SCCF RECON,ioos:station:SCCF:13:1,2010-11-11T07:00:00Z,26.5255,-82.0032,2.61,7.69,1111122 
SCCF RECON,ioos:station:SCCF:13:1,2010-11-11T08:00:00Z,26.5255,-82.0032,2.632,7.83,1111122 
SCCF RECON,ioos:station:SCCF:13:1,2010-11-11T09:00:00Z,26.5255,-82.0032,2.63,7.75,1111122 
SCCF RECON,ioos:station:SCCF:13:1,2010-11-11T10:00:00Z,26.5255,-82.0032,2.59,7.5,1111122 
SCCF RECON,ioos:station:SCCF:13:1,2010-11-11T11:00:00Z,26.5255,-82.0032,2.53,7.39,1111122 
SCCF RECON,ioos:station:SCCF:13:1,2010-11-11T12:00:00Z,26.5255,-82.0032,2.45,7.46,1111122 
SCCF RECON,ioos:station:SCCF:13:1,2010-11-11T13:00:00Z,26.5255,-82.0032,2.371,7.72,1111122 
SCCF RECON,ioos:station:SCCF:13:1,2010-11-11T14:00:00Z,26.5255,-82.0032,2.3,7.75,1111122 
SCCF RECON,ioos:station:SCCF:13:1,2010-11-11T15:00:00Z,26.5255,-82.0032,2.227,8.01,1111122 
SCCF RECON,ioos:station:SCCF:13:1,2010-11-11T16:00:00Z,26.5255,-82.0032,2.166,8.15,1111122 
SCCF RECON,ioos:station:SCCF:13:1,2010-11-11T17:00:00Z,26.5255,-82.0032,2.16,8.26,1111122 
SCCF RECON,ioos:station:SCCF:13:1,2010-11-11T18:00:00Z,26.5255,-82.0032,2.238,8.39,1111122 
SCCF RECON,ioos:station:SCCF:13:1,2010-11-11T19:00:00Z,26.5255,-82.0032,2.325,8.46,1111122 
SCCF RECON,ioos:station:SCCF:13:1,2010-11-11T20:00:00Z,26.5255,-82.0032,2.37,8.49,1111122 